Location: Geyikbay?r?
(36.8756°N, 30.4583°E)
Time: 13:14:43
(UTC+00:00)

Atlas Centaur 2 - Pass Details

Date: 05 August 2024
Orbit: 457 x 1271 km, 30.4° (Epoch: 11 September)

Event Time Altitude Azimuth Distance (km) Brightness Sun altitude
Rises 17:50:53 0° 230° (SW) 2,600 5.0 -9.9°
Reaches altitude 10° 17:53:15 10° 216° (SW) 1,800 4.0 -10.3°
Maximum altitude 17:56:37 24° 161° (SSE) 1,251 2.7 -10.9°
Enters shadow 17:59:12 16° 118° (ESE) 1,717 3.2 -11.3°
